Total_Precipitation_Accumulation
1.27 1.31 1.40 1.49 1.67 1.73 1.71 1.77 1.81 1.84 1.99 2.11 2.21 2.29 2.31 2.34 2.48 2.58 2.43 2.56 2.56 2.67 2.61 2.58 2.54 2.74 2.78 2.62 2.75 2.83 3.03 3.24 2.99 2.58 2.69 2.71 2.60 2.40 2.40 2.36 2.24 2.20 2.00
1.30 1.39 1.49 1.57 1.67 1.72 1.64 1.74 1.95 2.01 2.07 2.17 2.28 2.37 2.28 2.36 2.50 2.45 2.45 2.51 2.56 2.55 2.65 2.85 2.79 2.93 2.92 2.86 3.02 3.01 3.09 3.32 3.24 2.92 2.80 2.82 2.71 2.59 2.52 2.30 1.99 1.91 1.90
1.67 1.65 1.66 1.62 1.69 1.79 1.83 1.86 1.99 2.12 2.21 2.20 2.17 2.25 2.39 2.56 2.59 2.44 2.42 2.42 2.35 2.27 2.44 2.71 3.01 3.44 3.28 3.10 2.98 2.90 2.94 2.99 3.21 2.96 2.72 2.90 2.76 2.66 2.60 2.27 2.03 1.98 1.67
1.57 1.58 1.68 1.73 1.82 1.93 1.99 2.06 2.13 2.16 2.20 2.27 2.32 2.34 2.42 2.47 2.44 2.42 2.46 2.46 2.42 2.28 2.30 2.40 2.56 2.87 3.03 3.17 2.93 2.80 2.86 2.96 3.10 3.04 2.97 3.17 3.22 3.06 2.86 2.46 2.29 2.14 1.91
1.80 1.96 2.12 2.12 2.09 2.19 2.27 2.28 2.34 2.34 2.28 2.48 2.50 2.47 2.47 2.42 2.24 2.41 2.53 2.41 2.49 2.41 2.34 2.28 2.14 2.27 2.46 2.66 2.52 2.80 2.98 2.95 3.03 3.08 3.20 3.57 3.56 3.34 2.83 2.57 2.47 2.35 2.09
2.16 2.47 2.57 2.59 2.60 2.63 2.68 2.68 2.68 2.62 2.75 2.77 2.62 2.55 2.50 2.26 2.40 2.44 2.45 2.45 2.55 2.51 2.43 2.39 2.23 2.08 2.06 2.19 2.26 2.47 2.72 2.77 2.86 3.03 3.11 3.30 3.34 3.27 3.05 2.79 2.54 2.38 2.11
2.16 2.37 2.47 2.56 2.64 2.79 2.82 2.82 2.81 2.83 2.85 2.85 2.89 2.84 2.72 2.77 2.77 2.42 2.35 2.35 2.42 2.42 2.57 2.66 2.26 1.89 2.08 2.04 2.13 2.14 2.10 2.26 2.47 2.69 2.84 2.90 3.20 3.32 3.32 2.90 2.72 2.52 2.18
2.37 2.54 2.64 2.62 2.65 2.71 2.70 2.63 2.66 2.81 2.83 2.78 2.71 2.63 2.59 2.57 2.63 2.36 2.29 2.18 2.21 2.24 2.26 2.28 2.26 2.10 2.01 2.03 2.02 1.90 1.78 1.79 1.93 1.99 2.10 2.38 2.73 3.20 3.48 3.22 3.09 2.88 2.53
2.55 2.66 2.77 2.85 2.90 2.79 2.68 2.71 2.77 2.84 2.71 2.63 2.56 2.55 2.50 2.49 2.55 2.35 2.28 2.10 2.08 2.02 2.00 2.01 2.04 1.92 1.98 1.95 1.84 1.80 1.74 1.63 1.65 1.73 1.73 1.86 2.18 2.58 3.06 3.25 2.99 2.64 2.33
2.53 2.63 2.75 2.84 3.00 3.10 3.03 3.05 3.01 2.93 2.82 2.76 2.67 2.67 2.65 2.61 2.74 2.48 2.32 2.13 2.13 2.14 2.24 2.21 2.16 1.99 1.96 1.86 1.69 1.69 1.57 1.45 1.55 1.54 1.48 1.51 1.64 1.98 2.48 2.63 2.72 2.55 2.24
2.25 2.27 2.46 2.71 2.93 3.08 3.18 3.16 3.16 3.08 2.96 2.75 2.58 2.51 2.49 2.54 2.67 2.49 2.33 2.12 2.12 2.24 2.33 2.37 2.31 2.21 1.90 1.74 1.60 1.52 1.51 1.63 1.68 1.67 1.63 1.63 1.79 1.98 2.14 2.39 2.61 2.64 2.41
2.27 2.39 2.53 2.75 2.84 2.87 2.98 3.02 3.14 3.11 3.02 2.91 2.67 2.45 2.35 2.23 2.17 2.18 2.05 1.95 2.00 2.11 2.21 2.33 2.36 2.28 2.00 1.85 1.69 1.58 1.62 1.59 1.59 1.69 1.68 1.63 1.66 1.76 1.95 2.25 2.52 2.58 2.46
2.51 2.60 2.67 2.74 2.82 2.88 2.94 2.94 2.93 2.90 2.76 2.66 2.53 2.41 2.33 2.26 2.16 1.99 1.77 1.70 1.73 1.76 1.91 2.27 2.40 2.26 2.02 1.77 1.68 1.68 1.60 1.48 1.50 1.53 1.44 1.39 1.43 1.56 1.76 2.06 2.40 2.60 2.54
2.56 2.48 2.45 2.46 2.52 2.58 2.68 2.72 2.68 2.60 2.52 2.45 2.37 2.29 2.19 2.13 2.00 1.88 1.78 1.64 1.61 1.60 1.62 1.87 1.99 1.95 1.77 1.64 1.55 1.46 1.37 1.37 1.35 1.33 1.35 1.42 1.51 1.56 1.63 1.78 2.14 2.47 2.57
2.54 2.55 2.57 2.57 2.59 2.61 2.67 2.75 2.62 2.48 2.45 2.32 2.18 2.20 2.15 2.01 1.96 1.92 1.79 1.66 1.59 1.65 1.64 1.67 1.76 1.86 1.84 1.77 1.75 1.67 1.56 1.50 1.42 1.37 1.46 1.50 1.61 1.72 1.76 1.87 2.12 2.33 2.30
2.58 2.51 2.54 2.59 2.65 2.72 2.75 2.81 2.86 2.59 2.50 2.35 2.23 2.16 2.08 1.94 1.81 1.67 1.61 1.57 1.48 1.47 1.39 1.43 1.63 1.82 1.95 1.95 1.98 1.94 1.85 1.77 1.69 1.69 1.72 1.71 1.70 1.75 1.80 1.85 2.06 2.25 2.23
2.59 2.59 2.60 2.57 2.60 2.64 2.61 2.56 2.60 2.50 2.30 2.22 2.10 1.96 1.83 1.73 1.57 1.46 1.44 1.45 1.41 1.33 1.20 1.33 1.49 1.64 1.83 1.99 2.04 2.00 1.92 1.92 2.00 2.00 1.96 1.92 1.89 1.89 1.94 1.93 1.94 2.09 2.15
2.52 2.59 2.63 2.59 2.50 2.48 2.41 2.36 2.32 2.32 2.17 2.00 1.90 1.82 1.75 1.67 1.64 1.62 1.59 1.50 1.40 1.33 1.24 1.42 1.59 1.73 1.87 2.05 2.10 2.07 2.07 2.06 2.08 2.06 2.08 2.05 2.02 2.01 2.02 1.97 1.91 1.91 2.02
2.30 2.25 2.21 2.22 2.19 2.17 2.10 2.03 1.97 1.91 1.95 1.99 1.85 1.72 1.75 1.66 1.72 1.82 1.66 1.44 1.45 1.49 1.51 1.59 1.66 1.75 1.89 2.04 2.18 2.27 2.29 2.24 2.20 2.17 2.13 2.16 2.19 2.17 2.05 1.99 2.04 2.07 2.03
1.85 1.96 1.85 1.74 1.73 1.75 1.74 1.74 1.70 1.71 1.79 1.91 1.85 1.65 1.60 1.54 1.60 1.74 1.57 1.53 1.58 1.53 1.53 1.60 1.64 1.67 1.81 1.95 2.05 2.14 2.19 2.17 2.16 2.19 2.14 2.13 2.14 2.15 2.06 2.05 2.14 2.14 2.01
1.47 1.48 1.51 1.39 1.43 1.56 1.62 1.63 1.62 1.67 1.73 1.79 1.72 1.56 1.48 1.38 1.58 1.69 1.61 1.55 1.50 1.43 1.43 1.45 1.51 1.59 1.71 1.86 1.94 2.03 2.12 2.11 2.07 2.09 2.14 2.12 2.05 2.07 2.05 2.05 2.08 2.15 2.12
1.12 1.12 1.13 1.12 1.24 1.36 1.39 1.44 1.52 1.57 1.61 1.64 1.55 1.40 1.38 1.36 1.53 1.59 1.52 1.49 1.47 1.46 1.47 1.49 1.46 1.47 1.57 1.71 1.77 1.87 2.02 2.03 1.97 1.97 2.06 2.15 2.10 2.06 2.10 2.11 2.10 2.16 2.19
1.00 1.06 1.09 1.10 1.19 1.22 1.23 1.30 1.44 1.51 1.53 1.53 1.45 1.38 1.35 1.37 1.42 1.50 1.51 1.44 1.40 1.40 1.40 1.43 1.47 1.47 1.53 1.63 1.65 1.72 1.88 1.89 1.87 1.91 2.00 2.05 2.04 2.03 2.07 2.07 2.06 2.12 2.14
1.02 1.06 1.09 1.05 1.03 1.06 1.12 1.17 1.23 1.26 1.30 1.34 1.32 1.27 1.25 1.26 1.29 1.31 1.31 1.29 1.32 1.35 1.38 1.45 1.51 1.57 1.62 1.62 1.55 1.50 1.59 1.64 1.62 1.65 1.74 1.86 1.92 1.97 2.00 1.98 1.94 1.95 2.01
0.99 1.05 1.08 1.14 1.15 1.14 1.14 1.16 1.18 1.15 1.16 1.19 1.21 1.24 1.26 1.25 1.27 1.30 1.32 1.34 1.33 1.35 1.33 1.36 1.45 1.51 1.53 1.43 1.36 1.35 1.46 1.42 1.37 1.38 1.49 1.65 1.73 1.80 1.87 1.88 1.88 1.91 1.99
1.07 1.13 1.20 1.26 1.29 1.28 1.29 1.31 1.29 1.24 1.23 1.21 1.26 1.28 1.35 1.41 1.43 1.44 1.43 1.41 1.40 1.40 1.37 1.37 1.38 1.34 1.34 1.30 1.22 1.24 1.22 1.12 1.12 1.23 1.29 1.40 1.55 1.62 1.73 1.82 1.80 1.85 1.91